Location: Wildlife_Club
(35.6000°N, 81.4330°W)
Time: 07:58:55
(UTC-04:00)

A-11 Canister half - Pass Details

Date: 28 June 2019
Orbit: 1514 x 1685 km, 47.2° (Epoch: 19 July)

Event Time Altitude Azimuth Distance (km) Brightness Sun altitude
Rises 08:58:15 0° 216° (SW) 4,926 11.3 30.9°
Reaches altitude 10° 09:01:29 10° 212° (SSW) 3,939 10.9 31.6°
Maximum altitude 09:11:21 59° 136° (SE) 1,877 10.4 33.5°
Drops below altitude 10° 09:21:01 10° 61° (ENE) 3,870 12.2 35.5°
Sets 09:24:10 0° 57° (ENE) 4,837 12.4 36.1°
